User: anonymous   Login
Location: Unspecified
(0.0000°N, 0.0000°E)
Time: 19:45:14
(UTC+00:00)
Language:

FAISAT - Orbit

View from above orbital plane
View from above orbital plane
View from above satellite
View from above satellite

Ground track
Ground track

The orbit data is extracted from the following two-line orbital elements,

1 23465U 95002C   17269.42428845  .00000037  00000-0  23808-4 0  9993
2 23465  82.9285 216.0021 0037736   8.0041 110.8200 13.71877458135289
Epoch (UTC): 26 September 2017 10:10:58
Eccentricity: 0.0037736
inclination: 82.9285°
perigee height: 965 km
apogee height: 1020 km
right ascension of ascending node: 216.0021°
argument of perigee: 8.0041°
revolutions per day: 13.71877458
mean anomaly at epoch: 110.8200°
orbit number at epoch: 13528

The dashed part of the orbit path shows where the satellite is in the earth's shadow,  

DLR